Time,TemperatureF,DewpointF,PressureIn,WindDirection,WindDirectionDegrees,WindSpeedMPH,WindSpeedGustMPH,Humidity,HourlyPrecipIn,Conditions,Clouds,dailyrainin,SoftwareType,DateUTC
2013-07-20 00:32:00,66.0,63.0,-100.00,SSE,160,2.0,2.0,91,-99.99,,,-99.99,,2013-07-20 05:32:00,
2013-07-20 00:52:00,66.0,63.0,-100.00,SSE,160,2.0,2.0,91,-99.99,,,-99.99,,2013-07-20 05:52:00,
2013-07-20 01:01:00,66.0,63.0,-100.00,SSE,160,2.0,2.0,91,-99.99,,,-99.99,,2013-07-20 06:01:00,
2013-07-20 01:43:00,64.0,63.0,-100.00,SSE,165,3.0,4.0,95,-99.99,,,-99.99,,2013-07-20 06:43:00,
2013-07-20 01:52:00,64.0,63.0,-100.00,SSE,165,3.0,4.0,95,-99.99,,,-99.99,,2013-07-20 06:52:00,
2013-07-20 02:01:00,64.0,63.0,-100.00,SSE,165,3.0,4.0,95,-99.99,,,-99.99,,2013-07-20 07:01:00,
2013-07-20 02:44:00,63.0,51.0,-100.00,South,170,2.0,3.0,65,-99.99,,,-99.99,,2013-07-20 07:44:00,
2013-07-20 02:54:00,63.0,51.0,-100.00,South,170,2.0,3.0,65,-99.99,,,-99.99,,2013-07-20 07:54:00,
2013-07-20 03:01:00,63.0,51.0,-100.00,South,170,2.0,3.0,65,-99.99,,,-99.99,,2013-07-20 08:01:00,
2013-07-20 03:02:00,61.0,60.0,-100.00,NW,315,3.0,5.0,99,-99.99,,,-99.99,,2013-07-20 08:02:00,
2013-07-20 03:44:00,61.0,60.0,-100.00,NW,315,3.0,5.0,99,-99.99,,,-99.99,,2013-07-20 08:44:00,
2013-07-20 03:52:00,61.0,60.0,-100.00,NW,315,3.0,5.0,99,-99.99,,,-99.99,,2013-07-20 08:52:00,
2013-07-20 04:43:00,61.0,55.0,-100.00,South,185,0.0,0.0,80,-99.99,,,-99.99,,2013-07-20 09:43:00,
2013-07-20 04:53:00,61.0,55.0,-100.00,South,185,0.0,0.0,80,-99.99,,,-99.99,,2013-07-20 09:53:00,
2013-07-20 05:01:00,61.0,55.0,-100.00,South,185,0.0,0.0,80,-99.99,,,-99.99,,2013-07-20 10:01:00,
2013-07-20 05:42:00,62.0,61.0,-100.00,SE,140,4.0,6.0,99,-99.99,,,-99.99,,2013-07-20 10:42:00,
2013-07-20 05:52:00,62.0,61.0,-100.00,SE,140,4.0,6.0,99,-99.99,,,-99.99,,2013-07-20 10:52:00,
2013-07-20 06:01:00,62.0,61.0,-100.00,SE,140,4.0,6.0,99,-99.99,,,-99.99,,2013-07-20 11:01:00,
2013-07-20 06:32:00,61.0,60.0,-100.00,North,0,1.0,2.0,99,-99.99,,,-99.99,,2013-07-20 11:32:00,
2013-07-20 06:43:00,61.0,60.0,-100.00,North,0,1.0,2.0,99,-99.99,,,-99.99,,2013-07-20 11:43:00,
2013-07-20 06:52:00,61.0,60.0,-100.00,North,0,1.0,2.0,99,-99.99,,,-99.99,,2013-07-20 11:52:00,
2013-07-20 07:01:00,61.0,60.0,-100.00,North,0,1.0,2.0,99,-99.99,,,-99.99,,2013-07-20 12:01:00,
2013-07-20 07:52:00,61.0,61.0,-100.00,South,170,1.0,1.0,99,-99.99,,,-99.99,,2013-07-20 12:52:00,
2013-07-20 08:01:00,61.0,61.0,-100.00,South,170,1.0,1.0,99,-99.99,,,-99.99,,2013-07-20 13:01:00,
2013-07-20 08:02:00,61.0,61.0,-100.00,ENE,75,1.0,3.0,99,-99.99,,,-99.99,,2013-07-20 13:02:00,
2013-07-20 08:43:00,61.0,61.0,-100.00,ENE,75,1.0,3.0,99,-99.99,,,-99.99,,2013-07-20 13:43:00,
2013-07-20 08:53:00,61.0,61.0,-100.00,ENE,75,1.0,3.0,99,-99.99,,,-99.99,,2013-07-20 13:53:00,
2013-07-20 09:43:00,62.0,61.0,-100.00,ENE,70,4.0,4.0,99,-99.99,,,-99.99,,2013-07-20 14:43:00,
2013-07-20 09:53:00,62.0,61.0,-100.00,ENE,70,4.0,4.0,99,-99.99,,,-99.99,,2013-07-20 14:53:00,
2013-07-20 10:01:00,62.0,61.0,-100.00,ENE,70,4.0,4.0,99,-99.99,,,-99.99,,2013-07-20 15:01:00,
2013-07-20 10:44:00,62.0,62.0,-100.00,East,85,11.0,11.0,99,-99.99,,,-99.99,,2013-07-20 15:44:00,
2013-07-20 10:53:00,62.0,62.0,-100.00,East,85,11.0,11.0,99,-99.99,,,-99.99,,2013-07-20 15:53:00,
2013-07-20 11:01:00,62.0,62.0,-100.00,East,85,11.0,11.0,99,-99.99,,,-99.99,,2013-07-20 16:01:00,
2013-07-20 11:02:00,67.0,61.0,-100.00,East,90,9.0,11.0,81,-99.99,,,-99.99,,2013-07-20 16:02:00,
2013-07-20 11:43:00,67.0,61.0,-100.00,East,90,9.0,11.0,81,-99.99,,,-99.99,,2013-07-20 16:43:00,
2013-07-20 11:52:00,67.0,61.0,-100.00,East,90,9.0,11.0,81,-99.99,,,-99.99,,2013-07-20 16:52:00,
2013-07-20 12:43:00,67.0,61.0,-100.00,East,95,7.0,10.0,80,-99.99,,,-99.99,,2013-07-20 17:43:00,
2013-07-20 12:53:00,67.0,61.0,-100.00,East,95,7.0,10.0,80,-99.99,,,-99.99,,2013-07-20 17:53:00,
2013-07-20 13:01:00,67.0,61.0,-100.00,East,95,7.0,10.0,80,-99.99,,,-99.99,,2013-07-20 18:01:00,
2013-07-20 13:47:00,70.0,61.0,-100.00,ESE,115,4.0,5.0,73,-99.99,,,-99.99,,2013-07-20 18:47:00,
2013-07-20 13:59:00,70.0,61.0,-100.00,ESE,115,4.0,5.0,73,-99.99,,,-99.99,,2013-07-20 18:59:00,
2013-07-20 14:02:00,67.0,60.0,-100.00,NE,55,6.0,7.0,78,-99.99,,,-99.99,,2013-07-20 19:02:00,
2013-07-20 14:44:00,67.0,60.0,-100.00,NE,55,6.0,7.0,78,-99.99,,,-99.99,,2013-07-20 19:44:00,
2013-07-20 14:56:00,67.0,60.0,-100.00,NE,55,6.0,7.0,78,-99.99,,,-99.99,,2013-07-20 19:56:00,
2013-07-20 15:02:00,65.0,60.0,-100.00,NNE,20,2.0,3.0,84,-99.99,,,-99.99,,2013-07-20 20:02:00,
2013-07-20 15:35:00,65.0,60.0,-100.00,NNE,20,2.0,3.0,84,-99.99,,,-99.99,,2013-07-20 20:35:00,
2013-07-20 15:47:00,65.0,60.0,-100.00,NNE,20,2.0,3.0,84,-99.99,,,-99.99,,2013-07-20 20:47:00,
2013-07-20 15:57:00,65.0,60.0,-100.00,NNE,20,2.0,3.0,84,-99.99,,,-99.99,,2013-07-20 20:57:00,
2013-07-20 16:02:00,66.0,63.0,-100.00,East,100,8.0,9.0,91,-99.99,,,-99.99,,2013-07-20 21:02:00,
2013-07-20 16:35:00,66.0,63.0,-100.00,East,100,8.0,9.0,91,-99.99,,,-99.99,,2013-07-20 21:35:00,
2013-07-20 16:47:00,66.0,63.0,-100.00,East,100,8.0,9.0,91,-99.99,,,-99.99,,2013-07-20 21:47:00,
2013-07-20 16:56:00,66.0,63.0,-100.00,East,100,8.0,9.0,91,-99.99,,,-99.99,,2013-07-20 21:56:00,
2013-07-20 17:02:00,68.0,60.0,-100.00,ESE,105,10.0,12.0,75,-99.99,,,-99.99,,2013-07-20 22:02:00,
2013-07-20 17:49:00,68.0,60.0,-100.00,ESE,105,10.0,12.0,75,-99.99,,,-99.99,,2013-07-20 22:49:00,
2013-07-20 17:56:00,68.0,60.0,-100.00,ESE,105,10.0,12.0,75,-99.99,,,-99.99,,2013-07-20 22:56:00,
2013-07-20 21:02:00,69.0,59.0,-100.00,ESE,105,4.0,6.0,72,-99.99,,,-99.99,,2013-07-21 02:02:00,
2013-07-20 21:58:00,69.0,59.0,-100.00,ESE,105,4.0,6.0,72,-99.99,,,-99.99,,2013-07-21 02:58:00,
2013-07-20 22:47:00,67.0,59.0,-100.00,East,100,6.0,7.0,76,-99.99,,,-99.99,,2013-07-21 03:47:00,
2013-07-20 23:00:00,67.0,59.0,-100.00,East,100,6.0,7.0,76,-99.99,,,-99.99,,2013-07-21 04:00:00,
2013-07-20 23:01:00,67.0,59.0,-100.00,East,100,6.0,7.0,76,-99.99,,,-99.99,,2013-07-21 04:01:00,
2013-07-20 23:02:00,65.0,60.0,-100.00,East,100,9.0,12.0,82,-99.99,,,-99.99,,2013-07-21 04:02:00,
2013-07-20 23:43:00,65.0,60.0,-100.00,East,100,9.0,12.0,82,-99.99,,,-99.99,,2013-07-21 04:43:00,
2013-07-20 23:53:00,65.0,60.0,-100.00,East,100,9.0,12.0,82,-99.99,,,-99.99,,2013-07-21 04:53:00,